Regional Weather Roundup
Issued by NWS New Orleans/Baton Rouge, LA

Home | Current Version | Previous Version | Graphics & Text | Print | Product List | Glossary On
Versions: 1 2 3 4 5 6 7 8 9 10 11 12 13 14 15 16 17 18 19 20 21 22 23 24 25 26 27 28 29 30 31 32 33 34 35 36 37 38 39 40 41 42 43 44 45 46 47 48 49 50
638
ASUS44 KLIX 231805
RWRLIX
NEW ORLEANS REGIONAL WEATHER ROUNDUP
NATIONAL WEATHER SERVICE NEW ORLEANS LA
1200 PM CST SUN NOV 23 2014

NOTE: "FAIR" INDICATES FEW OR NO CLOUDS BELOW 12,000 FEET WITH NO
      SIGNIFICANT WEATHER AND/OR OBSTRUCTIONS TO VISIBILITY.
      SKY/WX - SKY CONDITION AND SIGNIFICANT WEATHER.
      TMP - AIR TEMPERATURE.     DP    - DEWPOINT TEMPERATURE.
      RH  - RELATIVE HUMIDITY.   PRES  - PRESSURE.
      HI  - HEAT INDEX.          WCI   - WIND CHILL INDEX.

*  THESE STATIONS ARE NOT NWS OR FAA STATIONS AND ARE NOT UNDER
   NWS QUALITY CONTROL.

LAZ038-040-048-061>063-065>067-069-231900-
SOUTHEAST LOUISIANA

CITY           SKY/WX    TMP DP  RH WIND       PRES   REMARKS
N.O. AUDUBON     N/A     73  64  73 MISG        N/A
6HR MIN TEMP:  62; 6HR MAX TEMP:  73; 6HR PCP:  0.18;

N.O. INTL ARPT PTSUNNY   70  60  70 SW18      29.69S
6HR MIN TEMP:  63; 6HR MAX TEMP:  70; 6HR PCP:  0.35;

N.O. LAKEFRONT MOSUNNY   69  60  73 SW22      29.69F
6HR MIN TEMP:  63; 6HR MAX TEMP:  69; 6HR PCP:  0.29;

N.O. DOWNTOWN* CLOUDY    68  59  73 S16G26    29.70F
6HR MIN TEMP:  63; 6HR MAX TEMP:  68; 6HR PCP:  0.53;

SLIDELL        CLOUDY    67  60  78 SW14G29   29.68F
6HR MIN TEMP:  63; 6HR MAX TEMP:  69; 6HR PCP:  0.42;

BATON ROUGE    CLOUDY    70  61  73 SW18G26   29.64F
6HR MIN TEMP:  63; 6HR MAX TEMP:  70; 6HR PCP:  0.23;

BOOTHVILLE     CLOUDY    64  62  93 SW20G30   29.75F
6HR MIN TEMP:  61; 6HR MAX TEMP:  69; 6HR PCP:  0.29;

BELLE CHASSE   PTSUNNY   71  61  70 SW22G30   29.69F
6HR MIN TEMP:  62; 6HR MAX TEMP:  71; 6HR PCP:  0.11;

BOGALUSA*        N/A     68  60  75 SW17      29.68R
6HR MIN TEMP:  63; 6HR MAX TEMP:  69; 6HR PCP:  0.14;

NEW ROADS*     CLOUDY    69  61  77 S10G18    29.62F
6HR MIN TEMP:  63; 6HR MAX TEMP:  69; 6HR PCP:  0.07;

GONZALES*      CLOUDY    71  62  73 SW14G20   29.67F
6HR MIN TEMP:  62; 6HR MAX TEMP:  71; 6HR PCP:  0.10;

HAMMOND*       CLOUDY    70  59  68 SW9       29.67F
HOUMA*         PTSUNNY   72  63  73 S17G25    29.69F
PORT FOURCHON* CLEAR     70  63  78 SW14G28   29.76F

$$

MSZ070-080>082-231900-
SOUTHERN MISSISSIPPI

CITY           SKY/WX    TMP DP  RH WIND       PRES   REMARKS
MCCOMB         CLOUDY    66  58  75 SW13G23   29.62F
6HR MIN TEMP:  62; 6HR MAX TEMP:  66; 6HR PCP:  0.15;

GULFPORT       CLOUDY    62  59  90 S13G21    29.68F
6HR MIN TEMP:  61; 6HR MAX TEMP:  70; 6HR PCP:  1.08;

BILOXI         CLOUDY    62  61  96 SW21      29.68F
6HR MIN TEMP:  61; 6HR MAX TEMP:  70; 6HR PCP:  0.23;

PASCAGOULA     LGT RAIN  62  59  90 S9        29.68F
6HR MIN TEMP:  62; 6HR MAX TEMP:  74; 6HR PCP:  0.02;

STENNIS ARPT*  MOSUNNY   66  57  72 MISG      29.69F

$$

COASTAL OBSERVATIONS
LAKE AND NEARSHORE STATIONS

STATION/POSITION TIME  TEMP    WIND        PRES    WAVE
                       AIR SEA DIR/SP/G            HT/PER
                 (UTC) (F)     (DEG/KT/KT) (MB)    (FT/S)
PASCAGOULA       1800   63     190/ 15/ 18 1005.5
WAVELAND YACHT   1800   63     210/ 10/ 16 1004.4
GRAND ISLE       1800   68 63  230/ 15/ 21 1007.1
SOUTHWEST PASS   1800   65 71              1007.7
NEW CANAL        1800   68 55  220/ 13/ 18 1005.7
SHELL BEACH      1800   66 53  210/ 19/ 25 1005.2

OFFSHORE STATIONS

STATION/POSITION TIME  TEMP    WIND        PRES    WAVE
                       AIR SEA DIR/SP/G            HT/PER
                 (UTC) (F)     (DEG/KT/KT) (MB)    (FT/S)
64 S DAUPHIN ISL 1744   69 72  250/ 23/ 29 1008.4    7/ 5

$$




USA.gov is the U.S. government's official web portal to all federal, state and local government web resources and services.